Change the Weather History Date:

Saturday, July 27, 2013

  Actual Average Record
Temperature  
Mean Temperature 74 °F -  
Max Temperature 93 °F 94 °F 105 °F (1980)
Min Temperature 57 °F 58 °F 53 °F (1965)
Cooling Degree Days 9    
Growing Degree Days 24 (Base 50)    
Moisture  
Dew Point 56 °F    
Average Humidity 59    
Maximum Humidity 84    
Minimum Humidity 30    
Precipitation  
Precipitation 0.00 in - - ()
Sea Level Pressure  
Sea Level Pressure 29.86 in    
Wind  
Wind Speed 10 mph (SSE)    
Max Wind Speed 14 mph    
Max Gust Speed -    
Visibility 10 miles    
Events      
Averages and records for this station are not official NWS values.
T = Trace of Precipitation, MM = Missing Value Source: NWS Daily Summary

Daily Weather History Graph

Daily Weather History Graph

Search for Another Location

Airport or City:

Trip Planner

Search our weather history database for the weather conditions in past years. The results will help you decide how hot, cold, wet, or windy it might be!

Date:

Astronomy

Jul. 27, 2013 Rise Set
Actual Time 6:03 AM PDT 8:21 PM PDT
Civil Twilight 5:33 AM PDT 8:51 PM PDT
Nautical Twilight 4:56 AM PDT 9:28 PM PDT
Astronomical Twilight 4:16 AM PDT 10:08 PM PDT
Moon 11:16 PM PDT (7/27) 11:45 AM PDT (7/27)
Length of Visible Light 15h 17m
Length of Day
14h 17m
Waning Gibbous, 70% of the Moon is Illuminated
Jul 27
Waning Gibbous
Jul 29
Last Quarter
Aug 6
New
Aug 14
First Quarter
Aug 20
Full

Hourly Weather History & Observations

Time (PDT) Temp. Heat Index Dew Point Humidity Pressure Visibility Wind Dir Wind Speed Gust Speed Precip Events Conditions
12:53 AM 64.0 °F - 55.0 °F 73% 29.93 in 10.0 mi SSE 10.4 mph - N/A   Clear
1:53 AM 63.0 °F - 55.0 °F 75% 29.91 in 10.0 mi South 10.4 mph - N/A   Clear
2:53 AM 61.0 °F - 55.0 °F 81% 29.91 in 10.0 mi SSE 11.5 mph - N/A   Clear
3:53 AM 61.0 °F - 54.0 °F 78% 29.91 in 10.0 mi South 9.2 mph - N/A   Clear
4:53 AM 59.0 °F - 54.0 °F 83% 29.91 in 10.0 mi South 8.1 mph - N/A   Clear
5:53 AM 57.9 °F - 53.1 °F 84% 29.92 in 10.0 mi SSE 9.2 mph - N/A   Clear
6:53 AM 59.0 °F - 54.0 °F 83% 29.93 in 10.0 mi SSE 8.1 mph - N/A   Clear
7:53 AM 60.1 °F - 54.0 °F 80% 29.94 in 10.0 mi SSE 6.9 mph - N/A   Clear
8:53 AM 64.0 °F - 54.0 °F 70% 29.94 in 10.0 mi SE 8.1 mph - N/A   Clear
9:53 AM 69.1 °F - 55.9 °F 63% 29.93 in 10.0 mi South 6.9 mph - N/A   Clear
10:53 AM 73.9 °F - 57.0 °F 55% 29.93 in 10.0 mi Variable 4.6 mph - N/A   Clear
11:53 AM 78.1 °F - 57.9 °F 50% 29.91 in 10.0 mi South 8.1 mph - N/A   Clear
12:53 PM 82.0 °F 81.7 °F 57.0 °F 42% 29.89 in 10.0 mi South 8.1 mph - N/A   Clear
1:53 PM 86.0 °F 85.0 °F 57.9 °F 38% 29.87 in 10.0 mi South 11.5 mph - N/A   Clear
2:53 PM 89.1 °F 88.0 °F 57.9 °F 35% 29.84 in 10.0 mi South 8.1 mph - N/A   Clear
3:53 PM 91.0 °F 89.2 °F 55.9 °F 30% 29.81 in 10.0 mi South 11.5 mph - N/A   Clear
4:53 PM 91.0 °F 90.2 °F 59.0 °F 34% 29.78 in 10.0 mi South 13.8 mph - N/A   Clear
5:53 PM 90.0 °F 88.6 °F 57.0 °F 33% 29.77 in 10.0 mi South 11.5 mph - N/A   Clear
6:53 PM 87.1 °F 86.1 °F 57.9 °F 37% 29.75 in 10.0 mi South 13.8 mph - N/A   Clear
7:53 PM 81.0 °F 81.1 °F 57.9 °F 45% 29.76 in 10.0 mi South 13.8 mph - N/A   Clear
8:53 PM 75.0 °F - 57.0 °F 53% 29.76 in 10.0 mi South 13.8 mph - N/A   Clear
9:53 PM 71.1 °F - 55.9 °F 59% 29.78 in 10.0 mi SSE 11.5 mph - N/A   Clear
10:53 PM 68.0 °F - 55.0 °F 63% 29.79 in 10.0 mi SSE 9.2 mph - N/A   Clear
11:53 PM 64.9 °F - 55.0 °F 70% 29.79 in 10.0 mi SSE 12.7 mph - N/A   Clear